This is the latest recevied weather packets stored in our database for station/object W1BKW. If no packets are shown the sender has not sent any weather packets the latest 10 day(s).
| Time | Temp. | Humidity | Pressure | Rain* | Wind** | Luminosity | Snow |
|---|---|---|---|---|---|---|---|
| 1777978997 | 12.22° C | 74% | 1005.9 hPa | 0 mm | - | 39 W/m² | - |
| 1777978097 | 12.78° C | 70% | 1005.7 hPa | 0 mm | - | 22 W/m² | - |
| 1777977194 | 12.78° C | 70% | 1005.5 hPa | 0 mm | - | 19 W/m² | - |
| 1777976295 | 12.22° C | 72% | 1005.9 hPa | 0 mm | - | 17 W/m² | - |
| 1777975389 | 10.56° C | 79% | 1005.9 hPa | 0 mm | - | 11 W/m² | - |
| 1777974490 | 10.56° C | 77% | 1005.3 hPa | 0 mm | - | 6 W/m² | - |
| 1777973586 | 10° C | 82% | 1005.7 hPa | 0 mm | - | 0 W/m² | - |
| 1777972684 | 9.44° C | 82% | 1005.8 hPa | 0 mm | - | 0 W/m² | - |
| 1777971783 | 9.44° C | 85% | 1005.7 hPa | 0 mm | - | 0 W/m² | - |
| 1777970881 | 9.44° C | 84% | 1006 hPa | 0 mm | - | 0 W/m² | - |
| 1777969979 | 10.56° C | 81% | 1005.9 hPa | 0 mm | - | 0 W/m² | - |
| 1777969074 | 10° C | 79% | 1006.1 hPa | 0 mm | - | 0 W/m² | - |
| 1777968170 | 9.44° C | 83% | 1006 hPa | 0 mm | - | 0 W/m² | - |
| 1777967266 | 10° C | 83% | 1006.1 hPa | 0 mm | - | 0 W/m² | - |
| 1777966365 | 11.11° C | 73% | 1006 hPa | 0 mm | - | 0 W/m² | - |
| 1777965465 | 12.22° C | 69% | 1006.2 hPa | 0 mm | - | 0 W/m² | - |
| 1777964561 | 11.67° C | 72% | 1006 hPa | 0 mm | - | 0 W/m² | - |
| 1777963657 | 12.78° C | 66% | 1006.1 hPa | 0 mm | - | 0 W/m² | - |
| 1777962754 | 12.78° C | 67% | 1006.1 hPa | 0 mm | - | 0 W/m² | - |
| 1777961851 | 9.44° C | 81% | 1006 hPa | 0 mm | - | 0 W/m² | - |
| 1777960949 | 6.67° C | 97% | 1006.1 hPa | 0 mm | - | 0 W/m² | - |
| 1777960050 | 6.67° C | 97% | 1006.4 hPa | 0 mm | - | 0 W/m² | - |
| 1777959147 | 6.67° C | 97% | 1006.3 hPa | 0 mm | - | 0 W/m² | - |
| 1777958245 | 6.67° C | 98% | 1006.3 hPa | 0 mm | - | 0 W/m² | - |
| 1777957344 | 6.67° C | 96% | 1006.1 hPa | 0 mm | - | 0 W/m² | - |
* Rain latest hour (hover to see other rain measurements)
** Current wind speed in m/s (hover to see current wind gust speed)